Location: ??????
(33.3472°N, 35.4764°E)
Time: 13:55:39
(UTC+00:00)

USA 267 - Pass Details

Date: 21 August 2019
Orbit: 1102 x 1106 km, 123.0° (Epoch: 17 September)

Event Time Altitude Azimuth Distance (km) Brightness Sun altitude
Rises 00:34:58 0° 150° (SSE) 3,906 6.1 -28.5°
Reaches altitude 10° 00:37:30 10° 154° (SSE) 2,950 5.4 -28.1°
Enters shadow 00:38:15 14° 156° (SSE) 2,676 5.1 -27.9°
Exits shadow 00:47:33 26° 298° (WNW) 2,018 4.4 -26.4°
Drops below altitude 10° 00:50:15 10° 309° (NW) 2,961 5.4 -26.0°
Sets 00:52:48 0° 313° (NW) 3,921 6.1 -25.5°
